Date String (YYYY-MM-DD hh:mm:ss) UTC,Instrument flags,Ambient pressure (hPa),Sample flow (lpm),Bypass flow (lpm),Sample temperature (°C),Ambient temperature (°C),ASC tube jacket temperature (°C),LED temperature (°C),Box temperature (°C),Sample RH (%),Span deviation,Mass concentration (μg/m³),Mass concentration (μg/m³),Mass concentration (μg/m³)
DateTimeUTC,F1_M11,P_M11,Q1_M11,Q2_M11,T1_M11,T2_M11,T3_M11,T4_M11,T5_M11,U1_M11,ZSPAN_M11,X2_M11,X0_M11,X1_M11
2021-12-07 02:00:00,,0819.5,5.01,0.00,22.6,22.8,00.0,31.6,24.5,07.0,0000.0,0005.54,0026.15,0003.08
2021-12-07 02:01:00,,0819.5,4.99,0.00,22.6,22.6,00.0,31.6,24.4,06.9,0000.0,0005.55,0026.74,0003.10
2021-12-07 02:02:00,,0819.8,4.99,0.00,22.6,22.4,00.0,31.6,24.4,06.9,0000.0,0005.62,0027.55,0003.11
2021-12-07 02:03:00,,0820.0,5.02,0.00,22.6,22.3,00.0,31.6,24.4,06.9,0000.0,0005.70,0027.89,0003.12
2021-12-07 02:04:00,,0820.0,4.99,0.00,22.6,22.2,00.0,31.6,24.3,06.9,0000.0,0005.77,0027.57,0003.13
2021-12-07 02:05:00,,0819.9,5.01,0.00,22.6,22.1,00.0,31.6,24.3,07.0,0000.0,0005.81,0029.37,0003.14
2021-12-07 02:06:00,,0819.9,5.01,0.00,22.6,22.1,00.0,31.6,24.3,07.0,0000.0,0005.90,0030.90,0003.15
2021-12-07 02:07:00,,0819.7,4.98,0.00,22.6,22.0,00.0,31.6,24.3,06.9,0000.0,0005.91,0030.42,0003.13
2021-12-07 02:08:00,,0819.7,5.00,0.00,22.6,21.9,00.0,31.6,24.2,07.0,0000.0,0005.93,0030.66,0003.12
2021-12-07 02:09:00,,0819.5,5.01,0.00,22.5,21.8,00.0,31.6,24.2,07.0,0000.0,0005.90,0030.86,0003.12
2021-12-07 02:10:00,,0819.7,5.00,0.00,22.5,21.8,00.0,31.5,24.1,07.1,0000.0,0005.80,0030.84,0003.11
2021-12-07 02:11:00,,0819.8,5.01,0.00,22.4,21.7,00.0,31.5,24.0,07.1,0000.0,0005.84,0031.07,0003.12
2021-12-07 02:12:00,,0819.8,5.00,0.00,22.4,21.6,00.0,31.5,23.9,07.1,0000.0,0005.91,0031.71,0003.13
2021-12-07 02:13:00,,0819.6,5.01,0.00,22.3,21.5,00.0,31.5,23.9,07.1,0000.0,0005.88,0031.79,0003.14
2021-12-07 02:14:00,,0819.5,5.00,0.00,22.3,21.4,00.0,31.5,23.9,07.1,0000.0,0005.85,0032.57,0003.14
2021-12-07 02:15:00,,0819.2,5.01,0.00,22.3,21.4,00.0,31.4,23.9,07.1,0000.0,0005.83,0033.25,0003.16
2021-12-07 02:16:00,,0819.2,4.99,0.00,22.2,21.4,00.0,31.4,23.9,07.1,0000.0,0005.77,0030.70,0003.17
2021-12-07 02:17:00,,0819.3,5.00,0.00,22.3,21.4,00.0,31.4,23.9,07.2,0000.0,0005.70,0028.93,0003.17
2021-12-07 02:18:00,,0819.2,5.01,0.00,22.2,21.4,00.0,31.4,23.9,07.1,0000.0,0005.71,0030.18,0003.17
2021-12-07 02:19:00,,0819.1,4.99,0.00,22.2,21.4,00.0,31.4,23.9,07.2,0000.0,0005.66,0030.54,0003.19
2021-12-07 02:20:00,,0819.2,5.01,0.00,22.2,21.4,00.0,31.3,23.9,07.3,0000.0,0005.65,0030.79,0003.20
2021-12-07 02:21:00,,0819.5,5.01,0.00,22.2,21.5,00.0,31.3,23.8,07.3,0000.0,0005.68,0031.84,0003.21
2021-12-07 02:22:00,,0819.3,4.99,0.00,22.3,22.0,00.0,31.4,24.0,07.3,0000.0,0005.74,0030.35,0003.22
2021-12-07 02:23:00,,0819.2,5.00,0.00,22.4,22.8,00.0,31.4,24.3,07.2,0000.0,0005.74,0030.71,0003.22
2021-12-07 02:24:00,,0819.2,5.00,0.00,22.6,23.2,00.0,31.4,24.5,07.2,0000.0,0005.73,0031.25,0003.21
2021-12-07 02:25:00,,0819.4,5.00,0.00,22.6,22.9,00.0,31.4,24.5,07.1,0000.0,0005.70,0030.72,0003.21
2021-12-07 02:26:00,,0819.4,5.00,0.00,22.6,22.7,00.0,31.5,24.5,07.1,0000.0,0005.69,0029.81,0003.21
2021-12-07 02:27:00,,0819.3,5.00,0.00,22.6,22.5,00.0,31.5,24.4,07.1,0000.0,0005.66,0030.08,0003.20
2021-12-07 02:28:00,,0819.1,5.00,0.00,22.6,22.3,00.0,31.5,24.3,07.1,0000.0,0005.67,0030.66,0003.20
2021-12-07 02:29:00,,0819.1,5.01,0.00,22.5,22.1,00.0,31.5,24.1,07.1,0000.0,0005.63,0031.21,0003.20
2021-12-07 02:30:00,,0819.1,4.99,0.00,22.4,22.0,00.0,31.5,24.1,07.1,0000.0,0005.67,0030.15,0003.21
2021-12-07 02:31:00,,0819.0,5.02,0.00,22.4,21.9,00.0,31.5,24.1,07.2,0000.0,0005.78,0032.04,0003.23
2021-12-07 02:32:00,,0819.0,4.99,0.00,22.4,21.8,00.0,31.4,24.1,07.2,0000.0,0005.85,0031.59,0003.24
2021-12-07 02:33:00,,0819.3,5.00,0.00,22.4,21.8,00.0,31.4,24.1,07.2,0000.0,0005.79,0030.82,0003.25
2021-12-07 02:34:00,,0819.4,4.99,0.00,22.4,21.8,00.0,31.4,24.1,07.2,0000.0,0005.74,0030.80,0003.27
2021-12-07 02:35:00,,0819.3,5.01,0.00,22.3,21.6,00.0,31.4,23.9,07.2,0000.0,0005.74,0030.47,0003.28
2021-12-07 02:36:00,,0819.3,4.99,0.00,22.3,21.5,00.0,31.4,23.8,07.2,0000.0,0005.77,0030.73,0003.30
2021-12-07 02:37:00,,0819.3,5.00,0.00,22.2,21.5,00.0,31.4,23.8,07.2,0000.0,0005.77,0031.60,0003.31
2021-12-07 02:38:00,,0819.3,5.00,0.00,22.2,21.4,00.0,31.4,23.9,07.2,0000.0,0005.77,0032.30,0003.31
2021-12-07 02:39:00,,0819.3,5.00,0.00,22.2,21.4,00.0,31.4,23.9,07.2,0000.0,0005.78,0032.19,0003.33
2021-12-07 02:40:00,,0819.3,5.00,0.00,22.2,21.4,00.0,31.3,23.9,07.2,0000.0,0005.79,0031.16,0003.35
2021-12-07 02:41:00,,0819.2,4.99,0.00,22.2,21.4,00.0,31.3,23.9,07.2,0000.0,0005.73,0030.98,0003.36
2021-12-07 02:42:00,,0819.2,5.01,0.00,22.2,21.4,00.0,31.3,23.9,07.2,0000.0,0005.67,0029.70,0003.35
2021-12-07 02:43:00,,0819.1,4.99,0.00,22.2,21.4,00.0,31.3,23.9,07.3,0000.0,0005.62,0028.86,0003.33
2021-12-07 02:44:00,,0819.0,5.02,0.00,22.2,21.3,00.0,31.3,23.8,07.4,0000.0,0005.63,0028.39,0003.32
2021-12-07 02:45:00,,0819.0,4.99,0.00,22.1,21.2,00.0,31.2,23.7,07.4,0000.0,0005.66,0028.24,0003.32
2021-12-07 02:46:00,,0819.0,5.01,0.00,22.1,21.1,00.0,31.2,23.7,07.4,0000.0,0005.66,0028.48,0003.33
2021-12-07 02:47:00,,0819.2,5.00,0.00,22.1,21.8,00.0,31.2,23.8,07.4,0000.0,0005.65,0028.00,0003.33
2021-12-07 02:48:00,,0819.3,5.00,0.00,22.2,22.7,00.0,31.3,24.1,07.2,0000.0,0005.69,0028.26,0003.33
2021-12-07 02:49:00,,0819.3,5.01,0.00,22.4,23.2,00.0,31.3,24.3,07.1,0000.0,0005.74,0028.52,0003.33
2021-12-07 02:50:00,,0819.3,5.00,0.00,22.5,22.9,00.0,31.3,24.4,07.1,0000.0,0005.76,0028.97,0003.33
2021-12-07 02:51:00,,0819.2,5.00,0.00,22.5,22.7,00.0,31.3,24.4,07.1,0000.0,0005.72,0028.76,0003.32
2021-12-07 02:52:00,,0818.9,5.01,0.00,22.5,22.5,00.0,31.3,24.3,07.1,0000.0,0005.67,0029.26,0003.31
2021-12-07 02:53:00,,0818.9,4.98,0.00,22.5,22.4,00.0,31.4,24.3,07.2,0000.0,0005.62,0028.78,0003.32
2021-12-07 02:54:00,,0818.9,5.01,0.00,22.5,22.2,00.0,31.4,24.2,07.2,0000.0,0005.61,0028.39,0003.33
2021-12-07 02:55:00,,0819.0,4.99,0.00,22.4,22.1,00.0,31.4,24.2,07.1,0000.0,0005.65,0028.14,0003.34
2021-12-07 02:56:00,,0818.9,5.00,0.00,22.4,22.0,00.0,31.4,24.1,07.1,0000.0,0005.62,0027.04,0003.33
2021-12-07 02:57:00,,0819.0,5.01,0.00,22.4,21.9,00.0,31.4,24.0,07.0,0000.0,0005.60,0025.52,0003.32
2021-12-07 02:58:00,,0819.0,4.99,0.00,22.3,21.8,00.0,31.4,24.0,07.0,0000.0,0005.63,0025.01,0003.29
2021-12-07 02:59:00,,0818.9,5.01,0.00,22.3,21.7,00.0,31.4,24.0,06.9,0000.0,0005.73,0024.57,0003.27
